Voltar ao catálogo

LANDSAT 5

AtivoCiênciaSSO
NORAD 14780·PAYLOAD·🇺🇸 United States

Lançado Mar 1, 1984 de Vandenberg Space Force Base

Loading…

Próximas Passagens (próximas 24 horas)

TLE

AtualizadoSource: Space-Track

Época: Sep 14, 2026, 12:54 UTC

1 14780U 84021A   26257.53812894  .00002121  00000-0  14760-3 0  9994
2 14780  98.0659 180.6800 0068259 175.5184 184.6668 15.04810402804829

Acompanhe LANDSAT 5 em tempo real com AllMySat

Download on the App Store